Fort Indiantown Gap, PA

7:03 AM EDT on August 17, 2017 (GMT -0400)
Muir Army Air Field

Weather History for KMUI - November, 2013

Change the Weather History Date:

Monday, November 25, 2013

  Actual Average Record
Temperature  
Mean Temperature 26 °F -  
Max Temperature 31 °F 47 °F 61 °F (2011)
Min Temperature 20 °F 34 °F 17 °F (2005)
Degree Days  
Heating Degree Days 40    
Moisture  
Dew Point 10 °F    
Average Humidity 50    
Maximum Humidity 61    
Minimum Humidity 36    
Precipitation  
Precipitation 0.00 in - - ()
Sea Level Pressure  
Sea Level Pressure 30.44 in    
Wind  
Wind Speed 7 mph (SW)    
Max Wind Speed 14 mph    
Max Gust Speed 21 mph    
Visibility 10 miles    
Events      
Averages and records for this station are not official NWS values.
T = Trace of Precipitation, MM = Missing Value Source: NWS Daily Summary

Daily Weather History Graph

Daily Weather History Graph

Search for Another Location

Airport or City:

Trip Planner

Search our weather history database for the weather conditions in past years. The results will help you decide how hot, cold, wet, or windy it might be!

Date:

Astronomy

Nov. 25, 2013 Rise Set
Actual Time 7:04 AM EST 4:42 PM EST
Civil Twilight 6:34 AM EST 5:12 PM EST
Nautical Twilight 6:00 AM EST 5:45 PM EST
Astronomical Twilight 5:27 AM EST 6:18 PM EST
Moon No Moon Rise 12:19 PM EST (11/25)
Length of Visible Light 10h 38m
Length of Day
9h 38m
Waning Gibbous, 51% of the Moon is Illuminated
Nov 25
Waning Gibbous
Nov 25
Last Quarter
Dec 2
New
Dec 9
First Quarter
Dec 17
Full

Hourly Weather History & Observations

Time (EST) Temp. Windchill Dew Point Humidity Pressure Visibility Wind Dir Wind Speed Gust Speed Precip Events Conditions
12:58 AM 22.1 °F 12.8 °F 8.6 °F 56% 30.46 in 10.0 mi WSW 8.1 mph - N/A   Clear
1:58 AM 21.6 °F 14.0 °F 9.3 °F 59% 30.47 in 10.0 mi WSW 5.8 mph - N/A   Clear
2:58 AM 21.7 °F 11.5 °F 9.5 °F 59% 30.48 in 10.0 mi WSW 9.2 mph - N/A   Clear
3:58 AM 21.7 °F 11.5 °F 9.1 °F 58% 30.49 in 10.0 mi West 9.2 mph 18.4 mph N/A   Clear
4:58 AM 21.7 °F 9.0 °F 9.1 °F 58% 30.49 in 10.0 mi West 13.8 mph 20.7 mph N/A   Clear
5:58 AM 21.2 °F 10.9 °F 8.6 °F 58% 30.51 in 10.0 mi West 9.2 mph - N/A   Clear
6:58 AM 20.3 °F 11.5 °F 8.6 °F 61% 30.51 in 10.0 mi West 6.9 mph - N/A   Clear
7:58 AM 21.9 °F 14.5 °F 8.8 °F 57% 30.53 in 10.0 mi WSW 5.8 mph - N/A   Clear
8:58 AM 24.6 °F 16.7 °F 8.1 °F 49% 30.54 in 10.0 mi Variable 6.9 mph - N/A   Clear
9:58 AM 26.1 °F 17.6 °F 9.1 °F 49% 30.53 in 10.0 mi SW 8.1 mph - N/A   Clear
10:58 AM 29.1 °F 20.6 °F 8.2 °F 42% 30.51 in 10.0 mi West 9.2 mph - N/A   Clear
11:58 AM 29.8 °F 21.5 °F 8.2 °F 40% 30.48 in 10.0 mi SSW 9.2 mph - N/A   Clear
12:58 PM 29.5 °F 21.8 °F 7.5 °F 40% 30.44 in 10.0 mi SSW 8.1 mph - N/A   Scattered Clouds
1:58 PM 31.5 °F 22.9 °F 7.5 °F 37% 30.41 in 10.0 mi SSW 10.4 mph - N/A   Scattered Clouds
2:58 PM 31.6 °F 25.1 °F 8.8 °F 38% 30.41 in 10.0 mi South 6.9 mph - N/A   Overcast
3:58 PM 30.7 °F 24.1 °F 6.8 °F 36% 30.39 in 10.0 mi South 6.9 mph - N/A   Overcast
4:58 PM 29.7 °F 24.7 °F 8.6 °F 41% 30.38 in 10.0 mi South 4.6 mph - N/A   Overcast
6:59 PM 28.0 °F - 10.9 °F 49% 30.38 in 10.0 mi Variable 1.2 mph - N/A   Mostly Cloudy
7:58 PM 28.2 °F - 11.7 °F 50% 30.37 in 10.0 mi SSE 2.3 mph - N/A   Overcast
8:58 PM 29.1 °F 25.4 °F 13.1 °F 51% 30.36 in 10.0 mi SSE 3.5 mph - N/A   Overcast
9:58 PM 28.2 °F - 14.5 °F 57% 30.34 in 10.0 mi Calm Calm - N/A   Overcast
10:58 PM 29.5 °F - 14.4 °F 53% 30.34 in 10.0 mi Calm Calm - N/A   Overcast
11:58 PM 29.5 °F - 16.0 °F 57% 30.34 in 10.0 mi East 1.2 mph - N/A   Clear